SF153 KMIA-KTPA

Flight info

Callsign SF153
Flight time 0h 55m
Altitude 6000
Route HOLID V511 SIGNL
Aircraft B350/L-SDFG/C

Departure

Time 2026-05-04 18:18
Airport Miami International Airport (KMIA)

Arrival

Time 2026-05-04 19:14
Airport Tampa International Airport (KTPA)
Time Latitude Longitude Altitude Speed Heading
2026-05-04 17:58 25.79761 -80.28220 12 ft 0 kts 84°
2026-05-04 17:59 25.79761 -80.28219 12 ft 0 kts 84°
2026-05-04 18:07 25.79761 -80.28218 12 ft 0 kts 83°
2026-05-04 18:12 25.79746 -80.28212 12 ft 11 kts 272°
2026-05-04 18:12 25.79780 -80.28200 12 ft 17 kts 25°
2026-05-04 18:13 25.79847 -80.28193 12 ft 14 kts 329°
2026-05-04 18:13 25.79950 -80.28298 12 ft 29 kts 284°
2026-05-04 18:13 25.79941 -80.28795 12 ft 31 kts 271°
2026-05-04 18:14 25.79939 -80.28894 12 ft 17 kts 267°
2026-05-04 18:14 25.79947 -80.29088 12 ft 21 kts 301°
2026-05-04 18:14 25.80005 -80.29165 12 ft 17 kts 271°
2026-05-04 18:15 25.79977 -80.29703 12 ft 46 kts 268°
2026-05-04 18:15 25.79977 -80.30084 12 ft 13 kts 276°
2026-05-04 18:15 25.80001 -80.30121 12 ft 0 kts 353°
2026-05-04 18:17 25.80039 -80.30120 12 ft 14 kts
2026-05-04 18:17 25.80083 -80.29958 12 ft 40 kts 87°
2026-05-04 18:18 25.80100 -80.29280 13 ft 122 kts 86°
2026-05-04 18:18 25.80165 -80.27796 288 ft 154 kts 88°
2026-05-04 18:18 25.80195 -80.26969 446 ft 167 kts 87°
2026-05-04 18:18 25.80255 -80.25705 875 ft 168 kts 86°
2026-05-04 18:19 25.80391 -80.23084 2084 ft 171 kts 86°
2026-05-04 18:19 25.80461 -80.21754 2688 ft 174 kts 86°
2026-05-04 18:19 25.80533 -80.20402 3295 ft 177 kts 86°
2026-05-04 18:20 25.80602 -80.19022 3901 ft 181 kts 85°
2026-05-04 18:20 25.80761 -80.17628 4495 ft 184 kts 67°
2026-05-04 18:20 25.81551 -80.16563 5098 ft 180 kts 27°
2026-05-04 18:20 25.82732 -80.16302 5699 ft 173 kts 347°
2026-05-04 18:21 25.83806 -80.16930 5987 ft 187 kts 311°
2026-05-04 18:21 25.84385 -80.18276 6017 ft 205 kts 281°
2026-05-04 18:21 25.84532 -80.19899 6011 ft 217 kts 274°
2026-05-04 18:21 25.84594 -80.21599 6005 ft 222 kts 273°
2026-05-04 18:22 25.84673 -80.23321 6002 ft 224 kts 274°
2026-05-04 18:22 25.84800 -80.25048 6001 ft 225 kts 276°
2026-05-04 18:22 25.84986 -80.26752 6000 ft 225 kts 278°
2026-05-04 18:22 25.85246 -80.28469 6000 ft 225 kts 281°
2026-05-04 18:23 25.85588 -80.30171 6000 ft 225 kts 284°
2026-05-04 18:23 25.86046 -80.31833 6000 ft 225 kts 290°
2026-05-04 18:23 25.86738 -80.33395 6000 ft 226 kts 300°
2026-05-04 18:23 25.87671 -80.34798 6001 ft 227 kts 309°
2026-05-04 18:24 25.88785 -80.36051 6001 ft 228 kts 316°
2026-05-04 18:24 25.89975 -80.37215 6000 ft 228 kts 316°
2026-05-04 18:24 25.91171 -80.38373 6000 ft 228 kts 316°
2026-05-04 18:24 25.92362 -80.39534 6000 ft 228 kts 316°
2026-05-04 18:25 25.93548 -80.40706 6000 ft 228 kts 316°
2026-05-04 18:25 25.94729 -80.41885 6000 ft 228 kts 316°
2026-05-04 18:25 25.95905 -80.43070 6000 ft 228 kts 315°
2026-05-04 18:25 25.97061 -80.44240 6000 ft 228 kts 315°
2026-05-04 18:26 25.98231 -80.45432 6000 ft 228 kts 315°
2026-05-04 18:26 25.99401 -80.46626 6000 ft 228 kts 315°
2026-05-04 18:26 26.00566 -80.47819 6000 ft 228 kts 315°
2026-05-04 18:26 26.01733 -80.49015 6000 ft 228 kts 315°
2026-05-04 18:27 26.02898 -80.50211 6000 ft 228 kts 315°
2026-05-04 18:27 26.04064 -80.51410 6000 ft 228 kts 315°
2026-05-04 18:27 26.05228 -80.52606 5997 ft 228 kts 315°
2026-05-04 18:27 26.06396 -80.53808 5980 ft 229 kts 315°
2026-05-04 18:28 26.07559 -80.55003 5997 ft 228 kts 315°
2026-05-04 18:28 26.08711 -80.56190 5999 ft 228 kts 315°
2026-05-04 18:28 26.09872 -80.57386 6000 ft 228 kts 315°
2026-05-04 18:28 26.11022 -80.58573 6000 ft 228 kts 315°
2026-05-04 18:29 26.12202 -80.59790 6000 ft 228 kts 315°
2026-05-04 18:29 26.13363 -80.60987 6000 ft 228 kts 315°
2026-05-04 18:29 26.14524 -80.62185 6000 ft 228 kts 315°
2026-05-04 18:29 26.15691 -80.63389 6000 ft 228 kts 315°
2026-05-04 18:30 26.18013 -80.65788 6000 ft 228 kts 315°
2026-05-04 18:30 26.19174 -80.66986 6000 ft 228 kts 315°
2026-05-04 18:30 26.20336 -80.68188 6000 ft 227 kts 315°
2026-05-04 18:31 26.21464 -80.69322 5993 ft 212 kts 317°
2026-05-04 18:31 26.22542 -80.70382 5994 ft 203 kts 317°
2026-05-04 18:31 26.23585 -80.71409 5996 ft 197 kts 317°
2026-05-04 18:31 26.24592 -80.72419 5998 ft 196 kts 315°
2026-05-04 18:32 26.25622 -80.73523 6010 ft 215 kts 313°
2026-05-04 18:32 26.26702 -80.74707 6007 ft 226 kts 313°
2026-05-04 18:32 26.27845 -80.75941 6003 ft 230 kts 314°
2026-05-04 18:32 26.29010 -80.77183 6002 ft 232 kts 314°
2026-05-04 18:33 26.30188 -80.78426 6001 ft 233 kts 314°
2026-05-04 18:33 26.31369 -80.79665 6000 ft 233 kts 314°
2026-05-04 18:33 26.32549 -80.80889 5998 ft 229 kts 315°
2026-05-04 18:33 26.33717 -80.82088 5999 ft 226 kts 315°
2026-05-04 18:34 26.34874 -80.83275 5999 ft 225 kts 315°
2026-05-04 18:34 26.36024 -80.84457 6000 ft 225 kts 315°
2026-05-04 18:34 26.37169 -80.85638 6000 ft 224 kts 315°
2026-05-04 18:34 26.38315 -80.86821 6000 ft 224 kts 315°
2026-05-04 18:35 26.39460 -80.88007 6000 ft 224 kts 315°
2026-05-04 18:35 26.40603 -80.89191 6000 ft 224 kts 315°
2026-05-04 18:35 26.41745 -80.90375 6000 ft 224 kts 315°
2026-05-04 18:35 26.42888 -80.91562 6000 ft 224 kts 315°
2026-05-04 18:36 26.44028 -80.92746 6000 ft 224 kts 315°
2026-05-04 18:36 26.45173 -80.93936 6000 ft 224 kts 315°
2026-05-04 18:36 26.46313 -80.95121 6000 ft 224 kts 315°
2026-05-04 18:36 26.47445 -80.96298 6000 ft 224 kts 315°
2026-05-04 18:37 26.48584 -80.97483 6000 ft 224 kts 315°
2026-05-04 18:37 26.49729 -80.98674 6000 ft 224 kts 315°
2026-05-04 18:37 26.50871 -80.99863 6000 ft 224 kts 315°
2026-05-04 18:37 26.52013 -81.01052 6000 ft 224 kts 315°
2026-05-04 18:38 26.53155 -81.02242 6000 ft 224 kts 315°
2026-05-04 18:38 26.54296 -81.03431 6000 ft 224 kts 315°
2026-05-04 18:38 26.55436 -81.04619 6000 ft 224 kts 315°
2026-05-04 18:38 26.56580 -81.05812 6000 ft 224 kts 315°
2026-05-04 18:39 26.57723 -81.07004 6000 ft 224 kts 315°
2026-05-04 18:39 26.58863 -81.08194 6000 ft 224 kts 315°
2026-05-04 18:39 26.60004 -81.09385 6000 ft 224 kts 315°
2026-05-04 18:39 26.61147 -81.10577 6000 ft 224 kts 315°
2026-05-04 18:40 26.62287 -81.11767 6000 ft 224 kts 315°
2026-05-04 18:40 26.63414 -81.12944 6000 ft 224 kts 315°
2026-05-04 18:40 26.64555 -81.14136 6000 ft 224 kts 315°
2026-05-04 18:40 26.65609 -81.15238 6000 ft 224 kts 315°
2026-05-04 18:41 26.66264 -81.15923 6000 ft 224 kts 315°
2026-05-04 18:41 26.67406 -81.17117 6000 ft 224 kts 315°
2026-05-04 18:41 26.68547 -81.18309 6000 ft 224 kts 315°
2026-05-04 18:41 26.69685 -81.19500 6000 ft 224 kts 315°
2026-05-04 18:42 26.70830 -81.20698 6000 ft 224 kts 315°
2026-05-04 18:42 26.71971 -81.21893 5913 ft 228 kts 315°
2026-05-04 18:42 26.73151 -81.23132 5576 ft 236 kts 315°
2026-05-04 18:42 26.74356 -81.24394 5369 ft 236 kts 316°
2026-05-04 18:43 26.75547 -81.25641 5297 ft 233 kts 316°
2026-05-04 18:43 26.76726 -81.26876 5182 ft 233 kts 316°
2026-05-04 18:43 26.77903 -81.28109 5015 ft 235 kts 316°
2026-05-04 18:43 26.79095 -81.29358 4868 ft 235 kts 317°
2026-05-04 18:44 26.80287 -81.30608 4752 ft 235 kts 317°
2026-05-04 18:44 26.81088 -81.31447 4773 ft 230 kts 317°
2026-05-04 18:44 26.82608 -81.33042 4970 ft 223 kts 316°
2026-05-04 18:44 26.83732 -81.34221 5118 ft 220 kts 316°
2026-05-04 18:45 26.84843 -81.35387 5267 ft 218 kts 316°
2026-05-04 18:45 26.85951 -81.36551 5417 ft 217 kts 316°
2026-05-04 18:45 26.87053 -81.37709 5567 ft 217 kts 315°
2026-05-04 18:45 26.88153 -81.38865 5718 ft 216 kts 315°
2026-05-04 18:46 26.89235 -81.40003 5864 ft 216 kts 315°
2026-05-04 18:46 26.90338 -81.41163 5965 ft 220 kts 315°
2026-05-04 18:46 26.91469 -81.42354 5994 ft 226 kts 315°
2026-05-04 18:46 26.92623 -81.43570 6000 ft 229 kts 315°
2026-05-04 18:47 26.93789 -81.44798 6000 ft 230 kts 315°
2026-05-04 18:47 26.94958 -81.46028 6000 ft 231 kts 315°
2026-05-04 18:47 26.96130 -81.47262 6000 ft 231 kts 315°
2026-05-04 18:47 26.97307 -81.48501 6000 ft 231 kts 315°
2026-05-04 18:48 26.98465 -81.49720 6000 ft 231 kts 315°
2026-05-04 18:48 26.99635 -81.50953 6000 ft 231 kts 315°
2026-05-04 18:48 27.00805 -81.52186 6000 ft 231 kts 315°
2026-05-04 18:48 27.01980 -81.53426 6000 ft 231 kts 315°
2026-05-04 18:49 27.03150 -81.54659 6000 ft 231 kts 315°
2026-05-04 18:49 27.04323 -81.55897 6000 ft 231 kts 315°
2026-05-04 18:49 27.05491 -81.57130 6000 ft 231 kts 315°
2026-05-04 18:49 27.06661 -81.58366 6000 ft 231 kts 315°
2026-05-04 18:50 27.07833 -81.59603 6000 ft 231 kts 315°
2026-05-04 18:50 27.09003 -81.60840 6000 ft 231 kts 315°
2026-05-04 18:50 27.10172 -81.62075 6000 ft 231 kts 315°
2026-05-04 18:50 27.11346 -81.63316 6000 ft 231 kts 315°
2026-05-04 18:51 27.12513 -81.64550 6000 ft 231 kts 315°
2026-05-04 18:51 27.13685 -81.65790 6000 ft 231 kts 315°
2026-05-04 18:51 27.14855 -81.67028 6000 ft 231 kts 315°
2026-05-04 18:51 27.16025 -81.68267 6000 ft 231 kts 314°
2026-05-04 18:52 27.17195 -81.69506 6000 ft 231 kts 314°
2026-05-04 18:52 27.18368 -81.70748 6000 ft 231 kts 314°
2026-05-04 18:52 27.19537 -81.71986 6000 ft 231 kts 314°
2026-05-04 18:52 27.20704 -81.73223 6000 ft 231 kts 314°
2026-05-04 18:53 27.21875 -81.74465 6000 ft 231 kts 314°
2026-05-04 18:53 27.23044 -81.75704 6000 ft 231 kts 314°
2026-05-04 18:53 27.24213 -81.76944 6000 ft 231 kts 314°
2026-05-04 18:53 27.25369 -81.78171 6000 ft 231 kts 314°
2026-05-04 18:54 27.26537 -81.79410 6000 ft 231 kts 314°
2026-05-04 18:54 27.27707 -81.80653 6000 ft 231 kts 314°
2026-05-04 18:54 27.28876 -81.81894 6000 ft 231 kts 314°
2026-05-04 18:54 27.30048 -81.83139 6000 ft 231 kts 314°
2026-05-04 18:55 27.31218 -81.84383 6000 ft 231 kts 314°
2026-05-04 18:55 27.33555 -81.86867 6000 ft 231 kts 314°
2026-05-04 18:55 27.34725 -81.88111 6000 ft 231 kts 314°
2026-05-04 18:56 27.35881 -81.89341 6000 ft 231 kts 314°
2026-05-04 18:56 27.37063 -81.90600 6000 ft 231 kts 314°
2026-05-04 18:56 27.38231 -81.91843 6000 ft 231 kts 314°
2026-05-04 18:56 27.39397 -81.93084 6000 ft 231 kts 314°
2026-05-04 18:57 27.40566 -81.94330 6000 ft 231 kts 314°
2026-05-04 18:57 27.41734 -81.95574 5978 ft 232 kts 314°
2026-05-04 18:57 27.42873 -81.96789 5923 ft 233 kts 315°
2026-05-04 18:57 27.44047 -81.98041 5911 ft 232 kts 315°
2026-05-04 18:58 27.45219 -81.99291 5908 ft 232 kts 315°
2026-05-04 18:58 27.46389 -82.00539 5908 ft 231 kts 315°
2026-05-04 18:58 27.47557 -82.01785 5908 ft 231 kts 315°
2026-05-04 18:58 27.48727 -82.03034 5908 ft 231 kts 315°
2026-05-04 18:59 27.49897 -82.04283 5908 ft 231 kts 315°
2026-05-04 18:59 27.50671 -82.05110 5908 ft 231 kts 315°
2026-05-04 18:59 27.52231 -82.06777 5908 ft 231 kts 315°
2026-05-04 18:59 27.53398 -82.08024 5908 ft 231 kts 315°
2026-05-04 19:00 27.54563 -82.09270 5908 ft 231 kts 315°
2026-05-04 19:00 27.55731 -82.10519 5908 ft 231 kts 315°
2026-05-04 19:00 27.56504 -82.11346 5908 ft 231 kts 315°
2026-05-04 19:00 27.57670 -82.12594 5908 ft 231 kts 315°
2026-05-04 19:01 27.58837 -82.13843 5908 ft 231 kts 315°
2026-05-04 19:01 27.60007 -82.15096 5908 ft 231 kts 315°
2026-05-04 19:01 27.61567 -82.16767 5908 ft 231 kts 315°
2026-05-04 19:01 27.62719 -82.18004 5929 ft 234 kts 314°
2026-05-04 19:02 27.63521 -82.18869 5943 ft 237 kts 314°
2026-05-04 19:02 27.64713 -82.20145 5900 ft 234 kts 315°
2026-05-04 19:02 27.65888 -82.21403 5905 ft 232 kts 315°
2026-05-04 19:02 27.67044 -82.22641 5907 ft 232 kts 315°
2026-05-04 19:03 27.68214 -82.23896 5907 ft 231 kts 314°
2026-05-04 19:03 27.69384 -82.25151 5754 ft 237 kts 315°
2026-05-04 19:03 27.70604 -82.26464 5348 ft 246 kts 315°
2026-05-04 19:03 27.71859 -82.27815 4945 ft 252 kts 316°
2026-05-04 19:04 27.73146 -82.29197 4540 ft 256 kts 316°
2026-05-04 19:04 27.74441 -82.30587 4135 ft 255 kts 317°
2026-05-04 19:04 27.75705 -82.31944 3728 ft 247 kts 317°
2026-05-04 19:04 27.76928 -82.33256 3326 ft 244 kts 316°
2026-05-04 19:05 27.78143 -82.34569 3045 ft 237 kts 315°
2026-05-04 19:05 27.78978 -82.36109 2939 ft 228 kts 286°
2026-05-04 19:05 27.79047 -82.37861 2920 ft 220 kts 263°
2026-05-04 19:05 27.78761 -82.39551 2909 ft 215 kts 257°
2026-05-04 19:06 27.78403 -82.41155 2907 ft 212 kts 255°
2026-05-04 19:06 27.78024 -82.42756 2907 ft 210 kts 255°
2026-05-04 19:06 27.77642 -82.44350 2907 ft 209 kts 255°
2026-05-04 19:06 27.77261 -82.45932 2907 ft 209 kts 255°
2026-05-04 19:07 27.76881 -82.47513 2907 ft 208 kts 255°
2026-05-04 19:07 27.76502 -82.49093 2908 ft 208 kts 255°
2026-05-04 19:07 27.76138 -82.50675 2905 ft 208 kts 259°
2026-05-04 19:07 27.76277 -82.52281 2904 ft 206 kts 292°
2026-05-04 19:08 27.77139 -82.53447 2900 ft 187 kts 327°
2026-05-04 19:08 27.78271 -82.54017 2902 ft 171 kts 341°
2026-05-04 19:08 27.79376 -82.54379 2892 ft 161 kts 351°
2026-05-04 19:08 27.80459 -82.54449 2900 ft 152 kts 360°
2026-05-04 19:09 27.81490 -82.54438 2896 ft 143 kts
2026-05-04 19:09 27.82446 -82.54421 2904 ft 129 kts
2026-05-04 19:09 27.83308 -82.54405 2832 ft 123 kts
2026-05-04 19:09 27.84187 -82.54390 2624 ft 127 kts
2026-05-04 19:10 27.85041 -82.54374 2514 ft 123 kts
2026-05-04 19:10 27.85865 -82.54359 2320 ft 124 kts
2026-05-04 19:10 27.86715 -82.54342 2117 ft 123 kts
2026-05-04 19:10 27.87572 -82.54325 1909 ft 123 kts
2026-05-04 19:11 27.88428 -82.54308 1699 ft 123 kts
2026-05-04 19:11 27.89280 -82.54291 1488 ft 122 kts
2026-05-04 19:11 27.90129 -82.54273 1276 ft 122 kts
2026-05-04 19:11 27.90975 -82.54256 1063 ft 121 kts
2026-05-04 19:12 27.91820 -82.54238 847 ft 121 kts
2026-05-04 19:12 27.93510 -82.54255 614 ft 126 kts 358°
2026-05-04 19:12 27.94352 -82.54290 415 ft 117 kts 358°
2026-05-04 19:13 27.95146 -82.54274 292 ft 116 kts
2026-05-04 19:13 27.95970 -82.54244 136 ft 117 kts
2026-05-04 19:13 27.96735 -82.54219 34 ft 101 kts
2026-05-04 19:13 27.97388 -82.54199 31 ft 89 kts
2026-05-04 19:14 27.97850 -82.54180 30 ft 32 kts
2026-05-04 19:14 27.97923 -82.54096 30 ft 12 kts 69°
2026-05-04 19:14 27.97929 -82.54077 30 ft 0 kts 80°